This demonstration page uses our WeatherBlox Daily Observations layout. Learn more.

Left ArrowRight Arrow

Hourly Observations for July 2, 2020

Temp ( °F °C ) Dew Point ( °F °C ) Humidity (%) Winds ( mph kmh ) Pressure ( in mb ) Visibility ( mi km ) Precip ( " mm )
12:53 am 00:53 Clear 73 22.8 66 18.9 79 79 E 6 9 29.94 1014 10 16 0.00 0.00
1:53 am 01:53 Clear 73 22.8 66 18.9 79 79 ESE 7 11 29.95 1014 10 16 0.00 0.00
2:53 am 02:53 Clear 72 22.2 65 18.3 79 79 SE 9 15 29.95 1014 10 16 0.00 0.00
3:53 am 03:53 Clear 71 21.7 65 18.3 81 81 E 3 6 29.95 1014 10 16 0.00 0.00
4:53 am 04:53 Clear 67 19.4 64 17.8 91 91 E 6 9 29.96 1015 10 16 0.00 0.00
5:53 am 05:53 Clear 68 20 65 18.3 90 90 E 6 9 29.96 1015 10 16 0.00 0.00
6:53 am 06:53 Sunny 69 20.6 66 18.9 90 90 E 6 9 29.97 1015 10 16 0.00 0.00
7:53 am 07:53 Cloudy 72 22.2 68 20 87 87 ESE 8 13 30.00 1016 10 16 0.00 0.00
8:53 am 08:53 Sunny 76 24.4 69 20.6 79 79 SE 13 20 30.00 1016 10 16 0.00 0.00
9:53 am 09:53 Sunny 79 26.1 68 20 69 69 SE 13 20 30.01 1016 10 16 0.00 0.00
10:53 am 10:53 Sunny 82 27.8 68 20 63 63 ESE 12 19 30.00 1016 10 16 0.00 0.00
11:53 am 11:53 Sunny 83 28.3 69 20.6 63 63 SE 13 20 30.01 1016 10 16 0.00 0.00
12:53 pm 12:53 Partly Cloudy 85 29.4 70 21.1 61 61 ESE 13 20 29.99 1016 10 16 0.00 0.00
1:53 pm 13:53 Sunny 87 30.6 70 21.1 57 57 ESE 7 11 29.98 1015 10 16 0.00 0.00
2:53 pm 14:53 Mostly Sunny 88 31.1 72 22.2 59 59 ESE 10 17 29.96 1015 10 16 0.00 0.00
3:53 pm 15:53 Mostly Sunny 89 31.7 72 22.2 57 57 ESE 12 19 29.95 1014 10 16 0.00 0.00
4:53 pm 16:53 Sunny 89 31.7 72 22.2 57 57 E 12 19 29.93 1014 10 16 0.00 0.00
5:53 pm 17:53 Mostly Sunny 87 30.6 72 22.2 61 61 ESE 12 19 29.92 1013 10 16 0.00 0.00
6:53 pm 18:53 Sunny 84 28.9 71 21.7 65 65 ESE 15 24 29.91 1013 10 16 0.00 0.00
7:53 pm 19:53 Sunny 83 28.3 71 21.7 67 67 ESE 15 24 29.92 1013 10 16 0.00 0.00
8:53 pm 20:53 Sunny 81 27.2 71 21.7 72 72 ESE 15 24 29.94 1014 10 16 0.00 0.00
9:53 pm 21:53 Clear 80 26.7 71 21.7 74 74 ESE 12 19 29.93 1014 10 16 0.00 0.00
10:35 pm 22:35 Mostly Cloudy 76 24.4 60 15.6 58 58 W 16 26 29.97 1015 10 16 0.00 0.00
10:53 pm 22:53 Mostly Cloudy 74 23.3 61 16.1 64 64 WSW 10 17 30.01 1016 10 16 0.00 0.00
11:53 pm 23:53 Partly Cloudy 71 21.7 62 16.7 73 73 VRB 3 6 30.02 1017 10 16 0.00 0.00

Powered by AerisWeather